This demonstration page uses our WeatherBlox Daily Observations layout. Learn more.

Left ArrowRight Arrow

Hourly Observations for January 16, 2018

Temp ( °F °C ) Dew Point ( °F °C ) Humidity (%) Winds ( mph kmh ) Pressure ( in mb ) Visibility ( mi km ) Precip ( " mm )
12:53 am 00:53 Clear -1 -18.3 -10 -23.3 65 65 NNW 20 31 30.84 1044 10 16 0.00 0.00
1:53 am 01:53 Mostly Clear -2 -18.9 -10 -23.3 68 68 NNW 15 24 30.84 1044 10 16 0.00 0.00
2:29 am 02:29 Mostly Cloudy -2 -18.9 -10 -23.3 68 68 NNW 14 22 30.95 1048 10 16 0.00 0.00
2:53 am 02:53 Cloudy -1 -18.3 -9 -22.8 68 68 NW 18 30 30.85 1045 10 16 0.00 0.00
3:53 am 03:53 Partly Cloudy -2 -18.9 -9 -22.8 72 72 NW 16 26 30.84 1044 10 16 0.00 0.00
4:53 am 04:53 Clear -2 -18.9 -10 -23.3 68 68 NW 17 28 30.84 1045 10 16 0.00 0.00
5:53 am 05:53 Clear -3 -19.4 -10 -23.3 71 71 NNW 15 24 30.87 1045 10 16 0.00 0.00
6:53 am 06:53 Mostly Cloudy -2 -18.9 -8 -22.2 75 75 NNW 17 28 30.87 1045 10 16 0.00 0.00
7:53 am 07:53 Cloudy 0 -17.8 -6 -21.1 76 76 NNW 14 22 30.87 1046 10 16 0.00 0.00
8:53 am 08:53 Cloudy 1 -17.2 -4 -20 79 79 N 20 31 30.88 1046 8 13 0.00 0.00
9:53 am 09:53 Mostly Cloudy 2 -16.7 -4 -20 76 76 NNW 15 24 30.88 1046 8 13 0.00 0.00
10:09 am 10:09 Partly Cloudy 1 -17 -4 -20 78 78 N 14 22 30.98 1049 10 16 0.00 0.00
10:53 am 10:53 Sunny 2 -16.7 -4 -20 76 76 NNW 14 22 30.89 1046 10 16 0.00 0.00
11:53 am 11:53 Sunny 5 -15 -2 -18.9 72 72 NNW 12 19 30.88 1046 10 16 0.00 0.00
12:53 pm 12:53 Sunny 6 -14.4 -2 -18.9 69 69 NW 9 15 30.85 1045 10 16 0.00 0.00
1:53 pm 13:53 Sunny 8 -13.3 0 -17.8 69 69 NW 6 9 30.81 1044 10 16 0.00 0.00
2:53 pm 14:53 Sunny 11 -11.7 1 -17.2 64 64 NW 7 11 30.80 1043 10 16 0.00 0.00
3:53 pm 15:53 Sunny 12 -11.1 2 -16.7 64 64 NW 7 11 30.80 1043 10 16 0.00 0.00
4:53 pm 16:53 Sunny 11 -11.7 1 -17.2 64 64 WSW 5 7 30.78 1042 10 16 0.00 0.00
5:53 pm 17:53 Clear 9 -12.8 1 -17.2 70 70 WSW 3 6 30.76 1042 10 16 0.00 0.00
6:53 pm 18:53 Clear 8 -13.3 0 -17.8 69 69 SSW 5 7 30.74 1041 10 16 0.00 0.00
7:53 pm 19:53 Clear 6 -14.4 -1 -18.3 73 73 S 3 6 30.74 1041 10 16 0.00 0.00
8:53 pm 20:53 Clear 6 -14.4 -1 -18.3 73 73 S 6 9 30.73 1041 10 16 0.00 0.00
9:53 pm 21:53 Clear 4 -15.6 -2 -18.9 76 76 S 8 13 30.71 1040 10 16 0.00 0.00
10:53 pm 22:53 Clear 4 -15.6 -2 -18.9 76 76 S 7 11 30.71 1040 10 16 0.00 0.00
11:53 pm 23:53 Clear 4 -15.6 -2 -18.9 76 76 S 6 9 30.68 1039 10 16 0.00 0.00

Powered by AerisWeather